Location: Castillon
(43.0896°N, 0.2156°E)
Time: 18:52:05
(UTC+00:00)

BREEZE-M DEB (TANK) - Pass Details

Date: 16 June 2021
Orbit: 321 x 14772 km, 49.5° (Epoch: 30 July)

Event Time Altitude Azimuth Distance (km) Brightness Sun altitude
Rises 20:33:26 0° 225° (SW) 2,113 5.8 -8.3°
Reaches altitude 10° 20:35:10 10° 217° (SW) 1,225 4.6 -8.6°
Maximum altitude 20:37:19 44° 142° (SE) 521 2.3 -8.8°
Drops below altitude 10° 20:40:37 10° 68° (ENE) 1,889 5.3 -9.3°
Sets 20:44:05 0° 62° (ENE) 3,640 6.8 -9.7°
